TimeCDT,TemperatureF,Dew PointF,Humidity,Sea Level PressureIn,VisibilityMPH,Wind Direction,Wind SpeedMPH,Gust SpeedMPH,PrecipitationIn,Events,Conditions,WindDirDegrees,DateUTC
12:15 AM,64.6,57.2,77,30.07,10.0,SE,3.5,-,N/A,,Clear,140,2013-05-06 05:15:00
12:35 AM,64.6,57.2,77,30.07,10.0,Calm,Calm,-,N/A,,Clear,0,2013-05-06 05:35:00
12:55 AM,64.4,57.4,78,30.07,10.0,SE,3.5,-,N/A,,Clear,140,2013-05-06 05:55:00
1:15 AM,63.9,57.2,79,30.07,10.0,Calm,Calm,-,N/A,,Clear,0,2013-05-06 06:15:00
1:35 AM,63.5,57.2,80,30.06,10.0,SE,3.5,-,N/A,,Clear,130,2013-05-06 06:35:00
1:55 AM,63.5,56.8,79,30.05,10.0,Calm,Calm,-,N/A,,Clear,0,2013-05-06 06:55:00
2:15 AM,63.3,57.2,80,30.04,10.0,Calm,Calm,-,N/A,,Clear,0,2013-05-06 07:15:00
2:35 AM,62.6,57.2,82,30.04,10.0,Calm,Calm,-,N/A,,Clear,0,2013-05-06 07:35:00
2:55 AM,62.6,57.6,84,30.04,10.0,Calm,Calm,-,N/A,,Clear,0,2013-05-06 07:55:00
3:15 AM,62.6,57.6,84,30.03,10.0,Calm,Calm,-,N/A,,Clear,0,2013-05-06 08:15:00
3:35 AM,61.7,57.2,85,30.03,10.0,Calm,Calm,-,N/A,,Clear,0,2013-05-06 08:35:00
3:55 AM,60.4,56.3,86,30.03,10.0,Calm,Calm,-,N/A,,Clear,0,2013-05-06 08:55:00
4:15 AM,60.8,57.2,88,30.03,10.0,Calm,Calm,-,N/A,,Clear,0,2013-05-06 09:15:00
4:35 AM,61.7,57.4,86,30.03,10.0,Calm,Calm,-,N/A,,Clear,0,2013-05-06 09:35:00
4:55 AM,61.7,57.7,87,30.02,10.0,Calm,Calm,-,N/A,,Clear,0,2013-05-06 09:55:00
5:15 AM,62.1,57.9,86,30.02,10.0,Calm,Calm,-,N/A,,Clear,0,2013-05-06 10:15:00
5:35 AM,62.6,58.3,86,30.02,10.0,Calm,Calm,-,N/A,,Clear,0,2013-05-06 10:35:00
5:55 AM,62.2,58.1,86,30.02,10.0,Calm,Calm,-,N/A,,Clear,0,2013-05-06 10:55:00
6:15 AM,62.1,58.5,88,30.02,10.0,ESE,3.5,-,N/A,,Clear,110,2013-05-06 11:15:00
6:35 AM,62.2,58.6,88,30.03,10.0,ESE,3.5,-,N/A,,Clear,120,2013-05-06 11:35:00
6:55 AM,62.6,59.0,88,30.03,10.0,ESE,3.5,-,N/A,,Clear,120,2013-05-06 11:55:00
7:15 AM,63.0,59.2,87,30.03,10.0,Calm,Calm,-,N/A,,Scattered Clouds,0,2013-05-06 12:15:00
7:35 AM,64.0,59.4,85,30.04,10.0,SE,3.5,-,N/A,,Scattered Clouds,130,2013-05-06 12:35:00
7:55 AM,65.8,60.6,83,30.05,10.0,SE,4.6,-,N/A,,Mostly Cloudy,130,2013-05-06 12:55:00
8:15 AM,68.0,60.8,78,30.06,10.0,SE,5.8,-,N/A,,Mostly Cloudy,130,2013-05-06 13:15:00
8:35 AM,68.7,61.0,76,30.07,10.0,SE,5.8,-,N/A,,Overcast,140,2013-05-06 13:35:00
8:55 AM,70.2,60.8,72,30.08,10.0,SE,5.8,-,N/A,,Overcast,140,2013-05-06 13:55:00
9:15 AM,72.0,61.0,68,30.08,10.0,SE,6.9,-,N/A,,Mostly Cloudy,140,2013-05-06 14:15:00
9:35 AM,73.6,61.0,65,30.08,10.0,SE,10.4,-,N/A,,Clear,140,2013-05-06 14:35:00
9:55 AM,74.8,60.6,61,30.08,10.0,SSE,12.7,17.3,N/A,,Clear,150,2013-05-06 14:55:00
10:15 AM,75.9,61.0,60,30.08,10.0,South,8.1,-,N/A,,Clear,170,2013-05-06 15:15:00
10:35 AM,76.5,60.1,57,30.08,10.0,SSE,6.9,16.1,N/A,,Scattered Clouds,150,2013-05-06 15:35:00
10:55 AM,78.8,60.6,54,30.08,10.0,SE,10.4,-,N/A,,Scattered Clouds,130,2013-05-06 15:55:00
11:15 AM,78.8,60.3,53,30.07,10.0,ESE,5.8,-,N/A,,Scattered Clouds,110,2013-05-06 16:15:00
11:35 AM,79.0,59.5,51,30.07,10.0,ESE,8.1,16.1,N/A,,Scattered Clouds,120,2013-05-06 16:35:00
11:55 AM,79.9,57.6,46,30.06,10.0,ESE,5.8,-,N/A,,Scattered Clouds,120,2013-05-06 16:55:00
12:15 PM,81.7,57.2,43,30.06,10.0,ESE,9.2,-,N/A,,Clear,110,2013-05-06 17:15:00
12:35 PM,81.9,56.7,42,30.04,10.0,East,11.5,18.4,N/A,,Clear,100,2013-05-06 17:35:00
12:55 PM,83.5,54.0,36,30.04,10.0,East,10.4,-,N/A,,Clear,90,2013-05-06 17:55:00
1:15 PM,82.8,53.4,36,30.03,10.0,ESE,8.1,17.3,N/A,,Clear,120,2013-05-06 18:15:00
1:35 PM,83.8,53.4,35,30.02,10.0,SE,11.5,-,N/A,,Clear,130,2013-05-06 18:35:00
1:55 PM,84.7,52.9,33,30.01,10.0,ESE,10.4,-,N/A,,Clear,110,2013-05-06 18:55:00
2:15 PM,85.5,53.4,33,30.00,10.0,ESE,11.5,16.1,N/A,,Clear,110,2013-05-06 19:15:00
2:35 PM,86.0,51.6,31,29.99,10.0,East,11.5,20.7,N/A,,Clear,100,2013-05-06 19:35:00
2:55 PM,86.2,53.4,32,29.98,10.0,ESE,10.4,17.3,N/A,,Clear,110,2013-05-06 19:55:00
3:15 PM,86.0,54.3,34,29.97,10.0,East,11.5,18.4,N/A,,Scattered Clouds,90,2013-05-06 20:15:00
3:35 PM,85.1,53.6,34,29.96,10.0,ESE,11.5,23.0,N/A,,Clear,110,2013-05-06 20:35:00
3:55 PM,83.8,52.0,33,29.95,10.0,ESE,17.3,25.3,N/A,,Clear,110,2013-05-06 20:55:00
4:15 PM,83.7,51.6,33,29.95,10.0,ESE,12.7,19.6,N/A,,Clear,110,2013-05-06 21:15:00
4:35 PM,84.2,51.6,32,29.94,10.0,ESE,15.0,21.9,N/A,,Clear,110,2013-05-06 21:35:00
4:55 PM,83.7,51.6,33,29.94,10.0,East,12.7,20.7,N/A,,Clear,90,2013-05-06 21:55:00
5:15 PM,83.3,50.9,32,29.94,10.0,ESE,17.3,23.0,N/A,,Clear,110,2013-05-06 22:15:00
5:55 PM,81.9,50.2,33,29.95,10.0,East,12.7,19.6,N/A,,Clear,90,2013-05-06 22:55:00
6:15 PM,81.5,49.6,33,29.95,10.0,East,10.4,19.6,N/A,,Clear,100,2013-05-06 23:15:00
6:35 PM,80.6,49.3,33,29.95,10.0,ESE,12.7,20.7,N/A,,Clear,110,2013-05-06 23:35:00
6:55 PM,79.7,50.2,36,29.96,10.0,East,12.7,19.6,N/A,,Clear,100,2013-05-06 23:55:00
7:15 PM,78.6,51.6,39,29.96,10.0,East,16.1,19.6,N/A,,Clear,100,2013-05-07 00:15:00
7:35 PM,77.0,52.3,42,29.96,10.0,East,10.4,16.1,N/A,,Clear,100,2013-05-07 00:35:00
7:55 PM,75.6,54.1,47,29.96,10.0,East,12.7,19.6,N/A,,Clear,100,2013-05-07 00:55:00
8:15 PM,74.5,55.2,51,29.97,10.0,East,10.4,19.6,N/A,,Clear,100,2013-05-07 01:15:00
8:35 PM,73.6,55.9,54,29.98,10.0,ESE,10.4,16.1,N/A,,Clear,110,2013-05-07 01:35:00
8:55 PM,72.7,57.4,59,30.00,10.0,East,10.4,16.1,N/A,,Clear,100,2013-05-07 01:55:00
9:15 PM,72.0,57.7,61,30.01,10.0,East,5.8,-,N/A,,Clear,90,2013-05-07 02:15:00
9:35 PM,71.2,58.1,63,30.03,10.0,East,5.8,-,N/A,,Clear,100,2013-05-07 02:35:00
9:55 PM,71.1,58.5,64,30.03,10.0,East,5.8,-,N/A,,Clear,100,2013-05-07 02:55:00
10:15 PM,70.5,58.6,66,30.03,10.0,ESE,5.8,-,N/A,,Clear,110,2013-05-07 03:15:00
10:35 PM,70.2,59.0,68,30.04,10.0,ESE,5.8,-,N/A,,Clear,120,2013-05-07 03:35:00
10:55 PM,69.8,59.0,68,30.04,10.0,ESE,4.6,-,N/A,,Clear,120,2013-05-07 03:55:00
11:15 PM,69.6,59.2,69,30.04,10.0,ESE,4.6,-,N/A,,Clear,110,2013-05-07 04:15:00
11:35 PM,69.1,59.2,71,30.03,10.0,ESE,5.8,-,N/A,,Clear,110,2013-05-07 04:35:00
11:55 PM,68.4,59.2,72,30.02,10.0,East,5.8,-,N/A,,Clear,100,2013-05-07 04:55:00